Mankato, MN

11:11 AM CDT on August 23, 2019 (GMT -0500)
Mankato Regional

Weather History for KMKT - May, 2019

Change the Weather History Date:

Friday, May 17, 2019

  Actual Average Record
Temperature  
Mean Temperature 58 °F -  
Max Temperature 64 °F 64 °F 87 °F (2012)
Min Temperature 53 °F 47 °F 39 °F (2007)
Degree Days  
Heating Degree Days 6    
Growing Degree Days 8 (Base 50)    
Moisture  
Dew Point 48 °F    
Average Humidity 71    
Maximum Humidity 94    
Minimum Humidity 60    
Precipitation  
Precipitation 0.24 in - - ()
Sea Level Pressure  
Sea Level Pressure 29.83 in    
Wind  
Wind Speed 12 mph (East)    
Max Wind Speed 23 mph    
Max Gust Speed 30 mph    
Visibility 10 miles    
Events Rain , Thunderstorm    
Averages and records for this station are not official NWS values.
T = Trace of Precipitation, MM = Missing Value Source: NWS Daily Summary

Daily Weather History Graph

Daily Weather History Graph

Search for Another Location

Airport or City:

Astronomy

May. 17, 2019 Rise Set
Actual Time 5:47 AM CDT 8:37 PM CDT
Civil Twilight 5:13 AM CDT 9:11 PM CDT
Nautical Twilight 4:30 AM CDT 9:54 PM CDT
Astronomical Twilight 3:40 AM CDT 10:45 PM CDT
Moon 7:21 PM CDT (5/17) 5:25 AM CDT (5/17)
Length of Visible Light 15h 58m
Length of Day
14h 50m
Waxing Gibbous, 98% of the Moon is Illuminated
May 17
Waxing Gibbous
May 18
Full
May 26
Last Quarter
Jun 3
New
Jun 10
First Quarter

Hourly Weather History & Observations

Time (CDT) Temp. Dew Point Humidity Pressure Visibility Wind Dir Wind Speed Gust Speed Precip Events Conditions
12:56 AM 57.9 °F 44.1 °F 60% 29.84 in 10.0 mi NNE 9.2 mph - N/A   Clear
1:56 AM 55.9 °F 45.0 °F 67% 29.84 in 10.0 mi NE 10.4 mph - N/A   Clear
2:56 AM 55.9 °F 45.0 °F 67% 29.88 in 10.0 mi ESE 3.5 mph - N/A   Clear
3:56 AM 55.9 °F 45.0 °F 67% 29.86 in 10.0 mi NE 9.2 mph - N/A   Clear
4:56 AM 55.0 °F 44.1 °F 67% 29.83 in 10.0 mi NNE 15.0 mph - N/A   Clear
5:56 AM 54.0 °F 45.0 °F 72% 29.86 in 10.0 mi NE 8.1 mph - N/A   Mostly Cloudy
6:56 AM 55.0 °F 46.0 °F 72% 29.86 in 10.0 mi NE 8.1 mph - N/A   Mostly Cloudy
7:56 AM 55.0 °F 45.0 °F 69% 29.81 in 10.0 mi ENE 16.1 mph 24.2 mph N/A   Clear
8:56 AM 55.9 °F 42.1 °F 60% 29.86 in 10.0 mi East 8.1 mph - N/A   Mostly Cloudy
9:56 AM 55.9 °F 44.1 °F 64% 29.91 in 10.0 mi East 8.1 mph - 0.00 in Rain Light Rain
10:56 AM 57.0 °F 46.0 °F 67% 29.91 in 10.0 mi East 11.5 mph - 0.00 in Rain Light Rain
11:56 AM 59.0 °F 46.9 °F 64% 29.88 in 10.0 mi East 19.6 mph - 0.00 in   Partly Cloudy
12:56 PM 60.1 °F 48.9 °F 67% 29.87 in 10.0 mi East 17.3 mph - N/A   Clear
1:56 PM 63.0 °F 51.1 °F 65% 29.85 in 10.0 mi East 19.6 mph 25.3 mph N/A   Clear
2:56 PM 64.9 °F 52.0 °F 63% 29.82 in 10.0 mi East 16.1 mph 23.0 mph N/A   Partly Cloudy
3:56 PM 63.0 °F 52.0 °F 67% 29.83 in 10.0 mi East 17.3 mph 23.0 mph N/A   Overcast
4:07 PM 62.6 °F 51.8 °F 68% 29.84 in 10.0 mi ESE 13.8 mph - N/A   Overcast
4:56 PM 62.1 °F 52.0 °F 70% 29.85 in 10.0 mi SE 16.1 mph - N/A   Overcast
5:31 PM 60.8 °F 51.8 °F 72% 29.82 in 10.0 mi East 18.4 mph - N/A   Overcast
5:56 PM 60.1 °F 52.0 °F 75% 29.82 in 10.0 mi ESE 16.1 mph 25.3 mph 0.00 in Rain Light Rain
7:56 PM 59.0 °F 50.0 °F 72% 29.77 in 10.0 mi East 18.4 mph 21.9 mph 0.00 in Rain Light Rain
8:56 PM 59.0 °F 50.0 °F 72% 29.79 in 10.0 mi ESE 18.4 mph 25.3 mph 0.00 in   Overcast
9:25 PM 57.2 °F 50.0 °F 77% 29.77 in 10.0 mi East 23.0 mph 29.9 mph N/A   Overcast
9:52 PM 55.4 °F 50.0 °F 82% 29.77 in 9.0 mi East 16.1 mph 24.2 mph 0.00 in Rain , Thunderstorm Light Thunderstorms and Rain
10:45 PM 53.6 °F 51.8 °F 94% 29.78 in 10.0 mi East 16.1 mph 25.3 mph 0.23 in   Overcast
10:56 PM 54.0 °F 51.1 °F 90% 29.78 in 10.0 mi East 18.4 mph - 0.23 in   Overcast
11:56 PM 53.1 °F 51.1 °F 93% 29.75 in 10.0 mi East 18.4 mph 26.5 mph 0.01 in Rain Light Rain